CW5255 Weather Reports


Display with metric or nautical units.
time (UTC)temp
F
wind
direction
speed
MPH
gust
MPH
rain 1hr
in
rain 24hr
in
rain mn
in
humidity
%
barometer
mb
20180521205711 76 161 1.0 7.0 0.00 0.00 0.00 71 1021.5
20180521205210 76 120 0.0 8.0 0.00 0.00 0.00 69 1021.4
20180521204710 77 80 3.0 8.0 0.00 0.00 0.00 67 1021.4
20180521204210 76 106 2.0 8.0 0.00 0.00 0.00 68 1021.4
20180521203710 76 91 8.0 8.0 0.00 0.00 0.00 69 1021.4
20180521203210 76 78 5.0 8.0 0.00 0.00 0.00 70 1021.5
20180521202710 76 126 3.0 9.0 0.00 0.00 0.00 71 1021.4
20180521202209 76 121 1.0 9.0 0.00 0.00 0.00 69 1021.5
20180521201709 75 62 5.0 8.0 0.00 0.00 0.00 70 1021.6
20180521201210 76 119 5.0 7.0 0.00 0.00 0.00 70 1021.7
20180521200709 76 91 2.0 4.0 0.00 0.00 0.00 70 1021.7
20180521200209 76 107 4.0 6.0 0.00 0.00 0.00 70 1021.8
20180521195709 76 105 2.0 6.0 0.00 0.00 0.00 69 1021.8
20180521195209 76 98 3.0 5.0 0.00 0.00 0.00 69 1021.8
20180521194708 76 117 3.0 9.0 0.00 0.00 0.00 68 1021.9
20180521194208 77 116 2.0 9.0 0.00 0.00 0.00 68 1022.0
20180521193708 77 165 5.0 9.0 0.00 0.00 0.00 67 1022.1
20180521193208 76 140 2.0 9.0 0.00 0.00 0.00 69 1021.9
20180521192707 76 134 1.0 5.0 0.00 0.00 0.00 68 1022.0
20180521192207 76 153 1.0 5.0 0.00 0.00 0.00 68 1022.1
20180521191707 76 111 2.0 6.0 0.00 0.00 0.00 68 1022.1
20180521191207 76 100 3.0 6.0 0.00 0.00 0.00 69 1022.2
20180521190707 76 95 3.0 6.0 0.00 0.00 0.00 67 1022.3
20180521190207 76 45 5.0 8.0 0.00 0.00 0.00 67 1022.4
20180521185707 76 49 0.0 8.0 0.00 0.00 0.00 66 1022.6
20180521185206 76 110 3.0 8.0 0.00 0.00 0.00 67 1022.7
20180521184706 75 165 5.0 8.0 0.00 0.00 0.00 70 1022.7
20180521184206 76 82 4.0 9.0 0.00 0.00 0.00 66 1022.8
20180521183706 76 86 5.0 9.0 0.00 0.00 0.00 66 1022.8
20180521183206 75 227 1.0 6.0 0.00 0.00 0.00 67 1022.8
20180521182706 74 71 2.0 4.0 0.00 0.00 0.00 68 1022.9
20180521182208 74 67 1.0 4.0 0.00 0.00 0.00 70 1022.9
20180521181705 74 98 1.0 7.0 0.00 0.00 0.00 68 1022.9
20180521181205 74 155 2.0 7.0 0.00 0.00 0.00 68 1022.9
20180521180705 74 63 2.0 6.0 0.00 0.00 0.00 68 1023.1
20180521180205 74 130 1.0 6.0 0.00 0.00 0.00 68 1023.1
20180521175705 75 155 3.0 7.0 0.00 0.00 0.00 70 1023.1
20180521175205 76 155 3.0 7.0 0.00 0.00 0.00 65 1023.2
20180521174705 75 102 1.0 7.0 0.00 0.00 0.00 64 1023.1
20180521174204 74 253 1.0 7.0 0.00 0.00 0.00 68 1023.3
20180521173704 74 235 4.0 9.0 0.00 0.00 0.00 68 1023.3
20180521173204 74 107 3.0 9.0 0.00 0.00 0.00 71 1023.4
20180521172704 74 138 5.0 6.0 0.00 0.00 0.00 72 1023.6
20180521172204 75 140 3.0 5.0 0.00 0.00 0.00 71 1023.6
20180521171704 74 148 3.0 7.0 0.00 0.00 0.00 68 1023.6
20180521171204 73 210 2.0 7.0 0.00 0.00 0.00 70 1023.7
20180521170704 73 88 0.0 7.0 0.00 0.00 0.00 70 1023.7
20180521170203 73 74 3.0 8.0 0.00 0.00 0.00 67 1023.8
20180521165705 73 76 2.0 8.0 0.00 0.00 0.00 71 1023.8
20180521165203 73 92 3.0 7.0 0.00 0.00 0.00 70 1024.0
20180521164703 73 126 4.0 7.0 0.00 0.00 0.00 69 1024.1
20180521164203 72 107 3.0 6.0 0.00 0.00 0.00 69 1024.1
20180521163703 72 225 1.0 6.0 0.00 0.00 0.00 73 1024.3
20180521163202 71 126 1.0 7.0 0.00 0.00 0.00 71 1024.2
20180521162702 71 143 3.0 7.0 0.00 0.00 0.00 74 1024.6
20180521162202 71 98 3.0 4.0 0.00 0.00 0.00 74 1024.6
20180521161702 71 100 0.0 5.0 0.00 0.00 0.00 75 1024.6
20180521161202 71 107 2.0 5.0 0.00 0.00 0.00 71 1024.6
20180521160701 71 136 3.0 6.0 0.00 0.00 0.00 70 1024.6
20180521160201 71 136 2.0 6.0 0.00 0.00 0.00 75 1024.8
20180521155701 71 164 2.0 5.0 0.00 0.00 0.00 70 1025.0
20180521155201 71 197 0.0 6.0 0.00 0.00 0.00 70 1025.0
20180521154701 71 178 4.0 6.0 0.00 0.00 0.00 72 1025.1
20180521154201 70 165 2.0 5.0 0.00 0.00 0.00 71 1024.9
20180521153701 70 111 2.0 4.0 0.00 0.00 0.00 70 1024.9
20180521153200 69 126 3.0 4.0 0.00 0.00 0.00 73 1025.0
20180521152700 69 155 3.0 4.0 0.00 0.00 0.00 74 1025.0
20180521152200 69 219 1.0 4.0 0.00 0.00 0.00 75 1024.9
20180521151700 69 161 2.0 4.0 0.00 0.00 0.00 74 1024.8
20180521151200 69 108 2.0 4.0 0.00 0.00 0.00 75 1024.9
20180521150700 69 167 3.0 4.0 0.00 0.00 0.00 72 1024.8
20180521150200 69 360 3.0 4.0 0.00 0.00 0.00 74 1024.8
20180521145700 69 89 4.0 4.0 0.00 0.00 0.00 75 1024.8
20180521145159 69 321 1.0 3.0 0.00 0.00 0.00 79 1024.8
20180521144659 68 104 1.0 3.0 0.00 0.00 0.00 77 1024.9
20180521144159 68 81 0.0 3.0 0.00 0.00 0.00 78 1024.9
20180521143659 68 5 1.0 3.0 0.00 0.00 0.00 81 1024.9
20180521143159 68 344 2.0 3.0 0.00 0.00 0.00 80 1025.0
20180521142659 67 348 2.0 3.0 0.00 0.00 0.00 82 1024.9
20180521142158 67 13 1.0 4.0 0.00 0.00 0.00 80 1025.0
20180521141658 67 346 2.0 4.0 0.00 0.00 0.00 84 1024.9
20180521141158 67 348 3.0 3.0 0.00 0.00 0.00 85 1025.0
20180521140659 67 339 1.0 2.0 0.00 0.00 0.00 85 1024.9
20180521140158 67 339 1.0 3.0 0.00 0.00 0.00 83 1024.9
20180521135659 67 338 0.0 3.0 0.00 0.00 0.00 84 1024.9
20180521135158 66 62 0.0 3.0 0.00 0.00 0.00 83 1024.8
20180521134657 66 62 1.0 3.0 0.00 0.00 0.00 83 1024.8
20180521134157 67 74 1.0 4.0 0.00 0.00 0.00 82 1024.9
20180521133657 67 31 2.0 4.0 0.00 0.00 0.00 80 1024.8
20180521133157 67 48 1.0 4.0 0.00 0.00 0.00 78 1024.7
20180521132657 67 47 2.0 4.0 0.00 0.00 0.00 79 1024.8
20180521132157 67 111 2.0 6.0 0.00 0.00 0.00 79 1024.7
20180521131656 68 76 3.0 6.0 0.00 0.00 0.00 80 1024.8
20180521131156 67 113 2.0 6.0 0.00 0.00 0.00 81 1024.8
20180521130656 67 91 2.0 5.0 0.00 0.00 0.00 79 1024.8
20180521130156 66 70 3.0 5.0 0.00 0.00 0.00 83 1024.7
20180521125656 65 61 2.0 5.0 0.00 0.00 0.00 83 1024.5
20180521125156 65 53 1.0 5.0 0.00 0.00 0.00 84 1024.6
20180521124656 65 65 2.0 5.0 0.00 0.00 0.00 85 1024.5
20180521124156 65 57 1.0 5.0 0.00 0.00 0.00 85 1024.6
20180521123656 65 41 1.0 4.0 0.00 0.00 0.00 86 1024.6
20180521123155 65 87 2.0 4.0 0.00 0.00 0.00 86 1024.6
20180521122655 64 75 0.0 4.0 0.00 0.00 0.00 88 1024.5
20180521122155 65 55 3.0 4.0 0.00 0.00 0.00 87 1024.5
20180521121655 64 59 1.0 2.0 0.00 0.00 0.00 91 1024.5
20180521121155 64 59 0.0 3.0 0.00 0.00 0.00 89 1024.4
20180521120655 64 15 1.0 3.0 0.00 0.00 0.00 90 1024.4
20180521120154 64 347 3.0 4.0 0.00 0.00 0.00 91 1024.3
20180521115654 64 13 3.0 4.0 0.00 0.00 0.00 91 1024.4
20180521115154 64 340 0.0 3.0 0.00 0.00 0.00 92 1024.4
20180521114654 64 355 2.0 4.0 0.00 0.00 0.00 91 1024.4
20180521114154 64 5 3.0 4.0 0.00 0.00 0.00 91 1024.3
20180521113653 64 85 1.0 2.0 0.00 0.00 0.00 91 1024.1
20180521113154 64 85 0.0 3.0 0.00 0.00 0.00 91 1024.1
20180521112653 64 85 2.0 3.0 0.00 0.00 0.00 90 1024.0
20180521112153 64 119 1.0 3.0 0.00 0.00 0.00 91 1023.9
20180521111653 64 120 3.0 3.0 0.00 0.00 0.00 92 1023.8
20180521111153 63 92 1.0 2.0 0.00 0.00 0.00 94 1023.7
20180521110653 63 92 1.0 2.0 0.00 0.00 0.00 94 1023.7
20180521110152 62 93 0.0 1.0 0.00 0.00 0.00 94 1023.5
20180521105652 62 92 0.0 1.0 0.00 0.00 0.00 95 1023.6
20180521105152 61 93 0.0 1.0 0.00 0.00 0.00 95 1023.5
20180521104652 62 92 0.0 2.0 0.00 0.00 0.00 95 1023.5
20180521104152 62 93 0.0 2.0 0.00 0.00 0.00 95 1023.4
20180521103652 61 93 1.0 2.0 0.00 0.00 0.00 96 1023.4
20180521103151 61 93 1.0 2.0 0.00 0.00 0.00 96 1023.4
20180521102652 60 93 0.0 2.0 0.00 0.00 0.00 96 1023.2
20180521102151 60 93 0.0 3.0 0.00 0.00 0.00 96 1023.3
20180521101651 60 93 0.0 3.0 0.00 0.00 0.00 96 1023.2
20180521101151 60 355 0.0 1.0 0.00 0.00 0.00 96 1023.2
20180521100651 60 355 0.0 1.0 0.00 0.00 0.00 96 1023.0
20180521100151 60 355 0.0 0.0 0.00 0.00 0.00 96 1023.0
20180521095650 60 355 0.0 0.0 0.00 0.00 0.00 96 1023.2
20180521095150 59 355 0.0 0.0 0.00 0.00 0.00 96 1023.0
20180521094650 59 355 0.0 0.0 0.00 0.00 0.00 96 1022.9
20180521094150 60 355 0.0 0.0 0.00 0.00 0.00 96 1022.8
20180521093650 60 355 0.0 0.0 0.00 0.00 0.00 96 1022.8
20180521093150 60 355 0.0 0.0 0.00 0.00 0.00 96 1022.8
20180521092649 60 355 0.0 0.0 0.00 0.00 0.00 96 1022.8
20180521092150 59 355 0.0 0.0 0.00 0.00 0.00 96 1022.8
20180521091650 59 355 0.0 0.0 0.00 0.00 0.00 96 1022.9
20180521091149 59 355 0.0 0.0 0.00 0.00 0.00 96 1022.7
20180521090649 59 355 0.0 1.0 0.00 0.00 0.00 96 1022.7
20180521090219 59 355 0.0 2.0 0.00 0.00 0.00 96 1022.6
20180521085649 59 355 0.0 2.0 0.00 0.00 0.00 95 1022.6
20180521085148 59 355 1.0 2.0 0.00 0.00 0.00 95 1022.5
20180521084648 59 355 0.0 0.0 0.00 0.00 0.00 95 1022.4
20180521084218 59 355 0.0 0.0 0.00 0.00 0.00 95 1022.4
20180521083718 59 355 0.0 0.0 0.00 0.00 0.00 95 1022.2
20180521083148 59 355 0.0 0.0 0.00 0.00 0.00 95 1022.2
20180521082648 59 355 0.0 0.0 0.00 0.00 0.00 95 1022.1
20180521082148 60 355 0.0 0.0 0.00 0.00 0.00 95 1022.2
20180521081717 60 355 0.0 3.0 0.00 0.00 0.00 94 1022.0
20180521081217 61 355 0.0 3.0 0.00 0.00 0.00 94 1021.9
20180521080647 61 355 2.0 4.0 0.00 0.00 0.00 95 1022.0
20180521080217 61 355 2.0 4.0 0.00 0.00 0.00 95 1022.0
20180521075718 61 350 2.0 4.0 0.00 0.00 0.00 95 1022.1
20180521075147 61 346 2.0 3.0 0.00 0.00 0.00 95 1022.0
20180521074646 61 329 2.0 4.0 0.00 0.00 0.00 95 1022.2
20180521074146 61 345 3.0 4.0 0.00 0.00 0.00 95 1022.1
20180521073646 61 338 2.0 4.0 0.00 0.00 0.00 95 1022.1
20180521073146 61 342 3.0 4.0 0.00 0.00 0.00 95 1022.1
20180521072646 61 344 2.0 3.0 0.00 0.00 0.00 95 1022.0
20180521072146 60 14 2.0 3.0 0.00 0.00 0.00 94 1021.9
20180521071716 61 15 1.0 3.0 0.00 0.00 0.00 94 1021.8
20180521071146 61 15 0.0 2.0 0.00 0.00 0.00 94 1021.7
20180521070645 62 15 1.0 3.0 0.00 0.01 0.00 93 1021.8
20180521070215 62 15 1.0 3.0 0.00 0.01 0.00 94 1021.8
20180521065645 61 5 2.0 3.0 0.00 0.01 0.00 95 1021.9
20180521065145 62 9 2.0 4.0 0.00 0.01 0.00 93 1021.9
20180521064645 62 9 1.0 4.0 0.00 0.01 0.00 95 1021.9
20180521064145 62 355 3.0 4.0 0.00 0.01 0.00 95 1021.8
20180521063644 62 355 3.0 4.0 0.00 0.01 0.00 96 1021.8
20180521063144 61 348 3.0 4.0 0.00 0.01 0.00 96 1021.9
20180521062714 61 20 1.0 2.0 0.00 0.01 0.00 95 1021.9
20180521062214 60 20 0.0 0.0 0.00 0.01 0.00 95 1021.7
20180521061714 61 20 0.0 0.0 0.00 0.01 0.00 95 1021.7
20180521061214 61 20 0.0 1.0 0.00 0.01 0.00 95 1021.7
20180521060644 60 20 0.0 2.0 0.00 0.01 0.00 95 1021.6
20180521060143 61 20 1.0 2.0 0.00 0.01 0.00 95 1021.6
20180521055713 61 20 0.0 0.0 0.00 0.01 0.00 94 1021.6
20180521055213 61 20 0.0 0.0 0.00 0.01 0.00 95 1021.6
20180521054713 62 20 0.0 0.0 0.00 0.01 0.00 94 1021.5
20180521054213 61 20 0.0 1.0 0.00 0.01 0.00 95 1021.5
20180521053713 61 20 0.0 1.0 0.00 0.01 0.00 95 1021.5
20180521053212 61 20 0.0 1.0 0.00 0.01 0.00 95 1021.6
20180521052712 61 20 0.0 1.0 0.00 0.01 0.00 94 1021.5
20180521052212 62 20 0.0 1.0 0.00 0.01 0.00 94 1021.3
20180521051712 62 20 0.0 2.0 0.00 0.01 0.00 94 1021.3
20180521051142 62 20 0.0 2.0 0.00 0.01 0.00 95 1021.5
20180521050642 61 20 0.0 2.0 0.00 0.01 0.00 94 1021.6
20180521050212 61 20 0.0 2.0 0.00 0.01 0.00 94 1021.5
20180521045711 61 20 1.0 2.0 0.00 0.01 0.00 94 1021.5
20180521045212 62 20 0.0 2.0 0.00 0.01 0.00 93 1021.5
20180521044711 62 20 0.0 1.0 0.00 0.01 0.00 93 1021.5
20180521044211 63 20 0.0 2.0 0.00 0.01 0.00 93 1021.4
20180521043711 63 20 0.0 2.0 0.00 0.01 0.00 94 1021.5
20180521043211 62 355 0.0 1.0 0.00 0.01 0.00 94 1021.4
20180521042710 62 355 0.0 0.0 0.00 0.01 0.00 92 1021.3
20180521042210 63 355 0.0 0.0 0.00 0.01 0.00 92 1021.1
20180521041711 64 355 0.0 2.0 0.00 0.01 0.00 90 1021.2
20180521041210 65 355 0.0 2.0 0.00 0.01 0.00 89 1021.1
20180521040710 65 350 1.0 2.0 0.00 0.01 0.00 89 1021.0
20180521040210 65 350 1.0 2.0 0.00 0.01 0.00 90 1021.2
20180521035710 64 350 1.0 3.0 0.00 0.01 0.01 91 1021.1
20180521035209 64 350 1.0 3.0 0.00 0.01 0.01 92 1021.2
20180521034709 63 350 2.0 2.0 0.00 0.01 0.01 93 1021.1
20180521034209 63 350 0.0 2.0 0.00 0.01 0.01 93 1021.0
20180521033709 63 350 0.0 2.0 0.00 0.01 0.01 93 1020.9
20180521033209 63 350 1.0 2.0 0.00 0.01 0.01 93 1020.9
20180521032709 64 350 1.0 1.0 0.00 0.01 0.01 92 1020.9
20180521032209 64 350 0.0 2.0 0.00 0.01 0.01 92 1021.0
20180521031709 64 350 1.0 2.0 0.00 0.01 0.01 92 1020.9
20180521031208 64 350 0.0 1.0 0.00 0.01 0.01 91 1020.9
20180521030708 65 350 0.0 2.0 0.00 0.01 0.01 90 1020.8
20180521030208 66 350 0.0 2.0 0.00 0.01 0.01 88 1020.9
20180521025708 67 350 1.0 3.0 0.00 0.01 0.01 88 1021.0
20180521025208 67 350 1.0 3.0 0.00 0.01 0.01 88 1021.0
20180521024708 66 341 1.0 3.0 0.00 0.01 0.01 88 1020.9
20180521024208 66 341 2.0 3.0 0.00 0.01 0.01 88 1020.9
20180521023708 66 340 1.0 4.0 0.00 0.01 0.01 87 1020.8
20180521023208 66 333 2.0 4.0 0.00 0.01 0.01 88 1020.9
20180521022707 65 15 1.0 3.0 0.00 0.01 0.01 90 1020.7
20180521022207 65 62 1.0 2.0 0.00 0.01 0.01 90 1020.6
20180521021707 65 62 1.0 1.0 0.00 0.01 0.01 89 1020.5
20180521021207 65 62 0.0 1.0 0.00 0.01 0.01 89 1020.2
20180521020706 65 62 0.0 1.0 0.00 0.01 0.01 89 1020.1
20180521020206 65 62 0.0 2.0 0.00 0.01 0.01 89 1020.0
20180521015706 66 62 1.0 3.0 0.00 0.01 0.01 89 1020.1
20180521015206 66 62 0.0 3.0 0.00 0.01 0.01 88 1020.2
20180521014706 66 323 1.0 2.0 0.00 0.01 0.01 87 1020.1
20180521014206 66 303 0.0 1.0 0.00 0.01 0.01 87 1020.1
20180521013706 67 303 0.0 0.0 0.00 0.01 0.01 87 1020.0
20180521013205 67 303 0.0 0.0 0.00 0.01 0.01 86 1019.9
20180521012705 67 303 0.0 1.0 0.00 0.01 0.01 84 1020.1
20180521012205 68 303 0.0 1.0 0.00 0.01 0.01 84 1020.1
20180521011705 68 303 0.0 1.0 0.00 0.01 0.01 83 1019.9
20180521011205 68 303 0.0 2.0 0.00 0.01 0.01 82 1020.0
20180521010705 68 303 0.0 2.0 0.00 0.01 0.01 82 1020.0
20180521010205 69 303 2.0 2.0 0.00 0.01 0.01 81 1019.9
20180521005705 69 303 0.0 1.0 0.00 0.01 0.01 80 1019.7
20180521005204 69 303 0.0 0.0 0.00 0.01 0.01 80 1019.7
20180521004704 70 303 0.0 0.0 0.00 0.01 0.01 79 1019.6
20180521004205 70 303 0.0 0.0 0.00 0.01 0.01 77 1019.5
20180521003704 71 303 0.0 0.0 0.00 0.01 0.01 77 1019.6
20180521003204 71 303 0.0 0.0 0.00 0.01 0.01 76 1019.6
20180521002704 72 303 0.0 0.0 0.00 0.01 0.01 76 1019.5
20180521002203 72 303 0.0 0.0 0.00 0.01 0.01 75 1019.4
20180521001703 72 303 0.0 1.0 0.00 0.01 0.01 76 1019.4
20180521001203 73 303 0.0 1.0 0.00 0.01 0.01 74 1019.6
20180521000703 73 303 0.0 1.0 0.00 0.01 0.01 73 1019.6
20180521000203 74 303 1.0 1.0 0.00 0.01 0.01 72 1019.6
20180520235703 74 303 0.0 0.0 0.00 0.01 0.01 72 1019.4
20180520235203 74 303 0.0 0.0 0.00 0.01 0.01 71 1019.5
20180520234702 75 303 0.0 1.0 0.00 0.01 0.01 71 1019.6
20180520234202 75 303 0.0 1.0 0.00 0.01 0.01 72 1019.5
20180520233702 75 303 0.0 2.0 0.00 0.01 0.01 71 1019.4
20180520233202 75 303 0.0 2.0 0.00 0.01 0.01 69 1019.3
20180520232702 76 49 0.0 2.0 0.00 0.01 0.01 70 1019.2
20180520232202 77 49 0.0 2.0 0.00 0.01 0.01 66 1019.2
20180520231701 77 49 1.0 2.0 0.00 0.01 0.01 66 1019.1
20180520231201 77 49 1.0 2.0 0.00 0.01 0.01 66 1018.9
20180520230701 78 9 0.0 2.0 0.00 0.01 0.01 64 1019.1
20180520230201 79 9 1.0 4.0 0.00 0.01 0.01 60 1019.1
20180520225701 79 21 1.0 9.0 0.00 0.01 0.01 59 1018.8
20180520225201 79 275 3.0 9.0 0.00 0.01 0.01 61 1018.8
20180520224700 80 257 7.0 7.0 0.00 0.01 0.01 58 1018.8
20180520224200 80 338 1.0 6.0 0.00 0.01 0.01 56 1018.7
20180520223700 80 336 1.0 6.0 0.00 0.01 0.01 56 1018.7
20180520223200 80 32 0.0 5.0 0.00 0.01 0.01 56 1018.9
20180520222700 80 360 1.0 5.0 0.00 0.01 0.01 55 1018.9
20180520222200 80 306 1.0 8.0 0.00 0.01 0.01 55 1019.0
20180520221700 81 25 2.0 8.0 0.00 0.01 0.01 55 1019.0
20180520221159 81 54 1.0 8.0 0.00 0.01 0.01 53 1018.8
20180520220659 82 360 2.0 8.0 0.00 0.01 0.01 52 1018.7
20180520220159 82 56 2.0 6.0 0.00 0.01 0.01 53 1018.7
20180520215659 82 17 3.0 10.0 0.00 0.01 0.01 52 1018.6
20180520215159 82 355 2.0 10.0 0.00 0.01 0.01 52 1018.5
20180520214659 83 334 3.0 9.0 0.00 0.01 0.01 50 1018.5
20180520214159 83 282 1.0 8.0 0.00 0.01 0.01 51 1018.6
20180520213658 83 355 2.0 9.0 0.00 0.01 0.01 51 1018.5
20180520213158 83 300 1.0 9.0 0.00 0.01 0.01 51 1018.6
20180520212658 83 262 1.0 7.0 0.00 0.01 0.01 49 1018.6
20180520212158 83 252 3.0 7.0 0.00 0.01 0.01 48 1018.5
20180520211659 83 258 6.0 9.0 0.00 0.01 0.01 50 1018.6
20180520211158 84 270 7.0 11.0 0.00 0.01 0.01 48 1018.7
20180520210658 83 267 1.0 11.0 0.00 0.01 0.01 50 1018.7
20180520210157 83 331 9.0 11.0 0.00 0.01 0.01 51 1018.6